Location: Campo Claro
(10.4907°N, 66.8285°W)
Time: 07:51:38
(UTC+00:00)

BREEZE-M DEB (TANK) - Visible Passes

Search period start: 26 June 2022 00:00
Search period end: 06 July 2022 00:00
Orbit: 338 x 14883 km, 49.6° (Epoch: 24 June)

Date Brightness Start Highest point End Pass type
(mag) Time Alt. Az. Time Alt. Az. Time Alt. Az.
26 Jun 8.7 03:07:14 10° WNW 03:42:52 14° W 03:59:43 10° WSW visible
27 Jun 8.3 01:02:40 10° NW 02:35:45 33° W 02:55:15 19° SSW visible
27 Jun 8.0 23:24:07 10° NW 01:26:42 56° WSW 01:47:47 24° S visible
28 Jun 8.0 21:54:19 10° NW 00:13:51 80° WSW 00:40:20 18° SSE visible
29 Jun 8.3 20:28:43 10° NW 22:55:50 77° ENE 23:31:30 10° SE visible
01 Jul 8.5 01:17:14 10° NW 02:35:49 25° W 02:59:50 10° SSW visible
01 Jul 8.2 23:33:01 10° NW 01:27:50 46° WSW 01:52:20 16° S visible
02 Jul 8.1 22:01:43 10° NW 00:16:42 70° WSW 00:44:50 12° SSE visible
03 Jul 8.3 20:35:53 10° NW 23:00:49 87° ENE 23:35:10 10° SE visible
05 Jul 8.6 01:38:06 10° WNW 02:35:17 17° W 02:58:29 10° SW visible
